MM0ZIF Weather Reports


time (UTC)temp
C
wind
direction
speed
KPH
gust
KPH
rain 1hr
cm
rain 24hr
cm
rain mn
cm
humidity
%
barometer
mb
20260508182504 7 164 4.8 11.3 0.00 0.15 0.10 76 1013.2
20260508182004 7 119 4.8 12.9 0.00 0.15 0.10 76 1013.2
20260508181504 7 182 4.8 12.9 0.00 0.15 0.10 76 1013.1
20260508181004 7 294 4.8 11.3 0.00 0.15 0.10 77 1012.9
20260508180505 7 25 3.2 14.5 0.00 0.15 0.10 78 1012.8
20260508180005 8 210 3.2 11.3 0.00 0.15 0.10 79 1012.8
20260508175504 8 224 3.2 11.3 0.00 0.15 0.10 80 1012.8
20260508175004 7 279 3.2 14.5 0.00 0.15 0.10 80 1012.7
20260508174004 7 294 3.2 11.3 0.00 0.15 0.10 82 1012.6
20260508173503 7 308 8.0 12.9 0.00 0.15 0.10 79 1012.6
20260508173004 7 301 3.2 12.9 0.00 0.15 0.10 77 1012.5
20260508172504 7 213 4.8 14.5 0.00 0.15 0.10 77 1012.4
20260508172004 7 270 4.8 14.5 0.00 0.15 0.10 78 1012.2
20260508171504 8 109 4.8 12.9 0.00 0.15 0.10 76 1012.2
20260508170504 8 110 3.2 16.1 0.00 0.15 0.10 73 1012.0
20260508170004 9 128 4.8 9.7 0.00 0.15 0.10 71 1011.9
20260508165004 8 303 4.8 11.3 0.00 0.15 0.10 69 1011.7
20260508164509 9 114 3.2 20.9 0.00 0.15 0.10 68 1011.5
20260508164010 8 92 3.2 16.1 0.00 0.15 0.10 69 1011.5
20260508163511 9 155 4.8 16.1 0.00 0.15 0.10 68 1011.4
20260508163009 10 85 4.8 12.9 0.00 0.15 0.10 68 1011.5
20260508162509 9 146 4.8 11.3 0.00 0.15 0.10 69 1011.4
20260508162009 9 123 4.8 14.5 0.00 0.15 0.10 70 1011.4
20260508161509 9 77 4.8 12.9 0.00 0.15 0.10 72 1011.3
20260508161009 9 209 4.8 11.3 0.00 0.15 0.10 71 1011.4
20260508160510 9 104 4.8 12.9 0.00 0.15 0.10 71 1011.2
20260508155509 9 116 4.8 11.3 0.00 0.15 0.10 68 1011.2
20260508154509 8 181 3.2 8.0 0.00 0.15 0.10 74 1011.1
20260508154009 8 149 4.8 11.3 0.00 0.15 0.10 73 1010.9
20260508153509 9 190 4.8 19.3 0.00 0.15 0.10 69 1010.8
20260508153010 9 96 4.8 11.3 0.00 0.15 0.10 68 1010.9
20260508152508 9 29 4.8 11.3 0.00 0.15 0.10 68 1010.7
20260508152009 9 123 4.8 11.3 0.00 0.18 0.10 66 1010.6
20260508151509 10 84 6.4 24.1 0.00 0.20 0.10 66 1010.7
20260508151009 10 273 4.8 12.9 0.00 0.28 0.10 67 1010.5
20260508150509 11 109 6.4 11.3 0.00 0.38 0.10 67 1010.5
20260508150008 11 7 4.8 9.7 0.00 0.38 0.10 66 1010.5
20260508145509 10 82 4.8 11.3 0.00 0.38 0.10 64 1010.4
20260508145009 10 56 4.8 12.9 0.00 0.38 0.10 65 1010.4
20260508144509 10 64 4.8 11.3 0.00 0.43 0.10 68 1010.2
20260508144009 9 110 3.2 16.1 0.00 0.43 0.10 72 1010.3
20260508143509 10 47 4.8 14.5 0.00 0.43 0.10 70 1010.1
20260508143009 10 99 4.8 12.9 0.00 0.46 0.10 69 1010.1
20260508142009 10 217 3.2 14.5 0.00 0.46 0.10 69 1010.1
20260508141509 10 180 4.8 12.9 0.00 0.46 0.10 68 1009.9
20260508140509 10 126 4.8 11.3 0.00 0.46 0.10 69 1009.8
20260508140008 10 82 6.4 14.5 0.00 0.48 0.10 71 1009.8
20260508135509 10 150 4.8 12.9 0.00 0.51 0.10 64 1009.7
20260508134508 10 245 4.8 14.5 0.00 0.56 0.10 69 1009.5
20260508134009 11 188 4.8 14.5 0.00 0.56 0.10 68 1009.3
20260508133508 10 90 4.8 12.9 0.00 0.58 0.10 66 1009.3
20260508133009 10 301 6.4 14.5 0.00 0.58 0.10 64 1009.2
20260508132508 10 139 4.8 12.9 0.00 0.61 0.10 65 1009.3
20260508132008 10 123 6.4 14.5 0.00 0.64 0.10 69 1009.1
20260508131509 10 73 4.8 9.7 0.00 0.64 0.10 70 1009.0
20260508130508 10 90 4.8 12.9 0.00 0.64 0.10 70 1008.9
20260508130008 10 113 4.8 14.5 0.00 0.64 0.10 68 1008.9
20260508125508 11 103 6.4 14.5 0.00 0.64 0.10 65 1009.0
20260508125008 10 135 6.4 14.5 0.00 0.64 0.10 67 1008.6
20260508124508 10 268 3.2 11.3 0.00 0.64 0.10 68 1008.5
20260508124009 10 124 4.8 12.9 0.00 0.64 0.10 68 1008.5
20260508123509 10 41 6.4 14.5 0.00 0.64 0.10 70 1008.3
20260508123008 10 88 4.8 14.5 0.00 0.64 0.10 70 1008.5
20260508122508 10 90 4.8 12.9 0.00 0.64 0.10 71 1008.4
20260508122008 9 25 4.8 12.9 0.00 0.64 0.10 72 1008.1
20260508121008 11 17 4.8 9.7 0.00 0.64 0.10 73 1008.1
20260508120508 10 44 8.0 16.1 0.00 0.64 0.10 73 1007.9
20260508120008 10 116 4.8 12.9 0.00 0.64 0.10 73 1008.0
20260508115508 9 96 6.4 12.9 0.00 0.64 0.10 70 1007.9
20260508115008 10 70 9.7 19.3 0.00 0.64 0.10 74 1007.8
20260508114509 11 99 4.8 11.3 0.00 0.64 0.10 70 1007.9
20260508114008 10 95 4.8 12.9 0.00 0.64 0.10 71 1007.7
20260508113508 10 88 4.8 11.3 0.00 0.64 0.10 76 1007.8
20260508113008 9 35 4.8 12.9 0.00 0.64 0.10 75 1007.5
20260508111508 8 50 4.8 11.3 0.00 0.64 0.10 75 1007.3
20260508111008 8 76 6.4 12.9 0.00 0.64 0.10 74 1007.2
20260508110007 8 87 3.2 9.7 0.00 0.64 0.10 82 1006.9
20260508105508 8 117 4.8 12.9 0.00 0.64 0.10 82 1007.1
20260508105007 10 253 4.8 12.9 0.00 0.64 0.10 74 1006.7
20260508104008 8 339 3.2 11.3 0.00 0.66 0.10 77 1006.8
20260508103508 8 44 4.8 12.9 0.00 0.66 0.10 78 1006.7
20260508103008 9 73 6.4 12.9 0.00 0.66 0.10 76 1006.4
20260508102508 9 6 4.8 14.5 0.00 0.66 0.10 77 1006.5
20260508102008 9 300 4.8 9.7 0.00 0.66 0.10 79 1006.4
20260508101508 9 44 4.8 12.9 0.00 0.66 0.10 78 1006.3
20260508100508 9 39 4.8 11.3 0.00 0.66 0.10 78 1006.0
20260508095507 9 121 4.8 12.9 0.00 0.66 0.10 77 1005.8
20260508095008 9 86 6.4 12.9 0.00 0.66 0.10 78 1005.9
20260508094507 9 112 3.2 12.9 0.00 0.66 0.10 78 1005.6
20260508093508 9 119 4.8 14.5 0.00 0.66 0.10 77 1005.4
20260508093008 8 47 3.2 9.7 0.00 0.66 0.10 82 1005.4
20260508092008 8 88 3.2 12.9 0.00 0.66 0.10 84 1005.1
20260508091508 8 89 3.2 16.1 0.00 0.66 0.10 86 1005.2
20260508091008 8 88 4.8 12.9 0.00 0.66 0.10 88 1004.9
20260508090007 8 63 3.2 12.9 0.00 0.66 0.10 88 1004.9
20260508085007 10 29 3.2 11.3 0.00 0.66 0.10 78 1004.6
20260508083508 8 131 4.8 14.5 0.00 0.66 0.10 77 1004.5
20260508083008 8 118 3.2 11.3 0.00 0.66 0.10 82 1004.4
20260508082507 8 83 3.2 9.7 0.00 0.66 0.10 84 1004.2
20260508082008 8 75 3.2 11.3 0.00 0.66 0.10 86 1004.1
20260508081507 8 39 3.2 9.7 0.00 0.66 0.10 86 1003.9
20260508081007 10 127 4.8 12.9 0.00 0.66 0.10 81 1003.9
20260508080507 10 43 4.8 12.9 0.00 0.66 0.10 86 1003.9
20260508080007 8 120 3.2 8.0 0.00 0.66 0.10 89 1003.6
20260508075507 8 77 1.6 8.0 0.00 0.66 0.10 90 1003.5
20260508075007 8 99 1.6 12.9 0.00 0.66 0.10 90 1003.7
20260508074507 8 109 4.8 11.3 0.00 0.66 0.10 87 1003.4
20260508074007 9 103 4.8 14.5 0.00 0.66 0.10 86 1003.1
20260508073507 8 96 3.2 12.9 0.03 0.66 0.10 87 1003.1
20260508073007 8 158 1.6 9.7 0.03 0.66 0.10 89 1003.0
20260508072508 8 169 4.8 9.7 0.03 0.66 0.10 90 1002.8
20260508072007 8 155 3.2 4.8 0.03 0.66 0.10 92 1002.8
20260508071507 8 57 0.0 9.7 0.03 0.66 0.10 93 1002.6
20260508071007 8 356 1.6 11.3 0.03 0.66 0.10 94 1002.7
20260508070507 7 314 1.6 9.7 0.03 0.66 0.10 94 1002.6
20260508065508 7 130 0.0 4.8 0.03 0.66 0.10 94 1002.5
20260508065007 7 199 1.6 4.8 0.03 0.66 0.10 94 1002.4
20260508064506 7 145 1.6 12.9 0.03 0.66 0.10 93 1002.2
20260508064007 8 205 4.8 12.9 0.03 0.66 0.10 92 1002.2
20260508063506 8 122 4.8 12.9 0.00 0.64 0.08 91 1002.1
20260508063007 8 131 3.2 11.3 0.00 0.64 0.08 93 1002.0
20260508062506 8 148 3.2 9.7 0.00 0.64 0.08 93 1001.9
20260508062007 7 162 1.6 9.7 0.00 0.64 0.08 94 1001.7
20260508061507 7 162 3.2 11.3 0.00 0.64 0.08 94 1001.7
20260508061007 7 36 1.6 9.7 0.00 0.64 0.08 95 1001.8
20260508060507 7 179 3.2 11.3 0.00 0.64 0.08 95 1001.7
20260508060007 7 164 4.8 9.7 0.00 0.64 0.08 95 1001.6
20260508055506 7 164 4.8 9.7 0.00 0.64 0.08 95 1001.4
20260508055007 7 164 3.2 4.8 0.00 0.64 0.08 95 1001.3
20260508054507 7 164 3.2 4.8 0.00 0.64 0.08 95 1001.3
20260508053007 6 197 3.2 4.8 0.00 0.64 0.08 95 1001.1
20260508052507 6 218 1.6 4.8 0.00 0.64 0.08 95 1001.2
20260508051507 6 188 4.8 14.5 0.00 0.64 0.08 95 1000.9
20260508051006 6 153 3.2 12.9 0.00 0.64 0.08 95 1000.8
20260508050506 6 159 1.6 11.3 0.00 0.64 0.08 95 1000.8
20260508045507 6 133 1.6 8.0 0.03 0.64 0.08 95 1000.6
20260508045006 6 126 1.6 4.8 0.03 0.64 0.08 95 1000.9
20260508044507 6 36 0.0 8.0 0.03 0.64 0.08 95 1000.7
20260508044006 6 180 1.6 8.0 0.03 0.64 0.08 95 1000.6
20260508043506 6 157 1.6 8.0 0.03 0.64 0.08 96 1000.7
20260508043007 6 193 1.6 8.0 0.03 0.64 0.08 96 1000.7
20260508042507 6 128 1.6 3.2 0.03 0.64 0.08 96 1000.6
20260508042007 6 210 1.6 4.8 0.03 0.64 0.08 96 1000.5
20260508041507 6 166 0.0 0.0 0.03 0.64 0.08 96 1000.5
20260508041006 6 166 0.0 0.0 0.03 0.64 0.08 96 1000.5
20260508040506 6 166 0.0 1.6 0.03 0.64 0.08 96 1000.6
20260508040007 6 122 0.0 1.6 0.05 0.64 0.08 96 1000.5
20260508035506 6 163 0.0 0.0 0.03 0.61 0.05 96 1000.5
20260508035007 6 311 0.0 0.0 0.03 0.61 0.05 96 1000.3
20260508034506 6 323 0.0 1.6 0.03 0.61 0.05 95 1000.1
20260508034007 6 148 0.0 3.2 0.03 0.61 0.05 95 1000.2
20260508033507 6 200 1.6 8.0 0.03 0.61 0.05 95 1000.1
20260508032506 6 179 6.4 11.3 0.03 0.61 0.05 95 1000.2
20260508032006 6 158 8.0 11.3 0.03 0.61 0.05 94 1000.2
20260508031506 6 146 6.4 9.7 0.03 0.61 0.05 92 1000.1
20260508031006 6 137 8.0 9.7 0.03 0.61 0.05 92 1000.2
20260508030506 6 137 8.0 11.3 0.03 0.61 0.05 92 999.9
20260508025006 6 201 4.8 11.3 0.03 0.58 0.03 91 999.7
20260508024506 6 163 8.0 14.5 0.03 0.58 0.03 92 999.6
20260508023506 6 169 9.7 14.5 0.03 0.58 0.03 93 999.5
20260508023006 6 169 9.7 14.5 0.03 0.58 0.03 93 999.3
20260508022506 6 169 9.7 14.5 0.03 0.58 0.03 93 999.6
20260508022006 7 161 8.0 12.9 0.03 0.58 0.03 92 999.3
20260508021506 7 161 8.0 12.9 0.03 0.58 0.03 92 999.4
20260508021006 7 161 8.0 12.9 0.03 0.58 0.03 92 999.5
20260508020505 7 161 8.0 12.9 0.03 0.58 0.03 92 999.5
20260508020006 7 133 6.4 14.5 0.03 0.58 0.03 92 999.4
20260508015506 7 304 3.2 20.9 0.00 0.56 0.00 90 999.5
20260508015005 7 146 8.0 22.5 0.00 0.56 0.00 90 999.3
20260508014506 7 154 6.4 16.1 0.00 0.56 0.00 89 999.4
20260508014007 6 152 4.8 22.5 0.00 0.56 0.00 90 999.3
20260508013506 6 162 4.8 22.5 0.00 0.56 0.00 90 999.2
20260508013006 7 189 6.4 19.3 0.00 0.56 0.00 90 999.0
20260508012505 7 96 3.2 11.3 0.00 0.56 0.00 91 999.1
20260508012006 7 81 1.6 14.5 0.00 0.56 0.00 91 999.3
20260508011505 7 217 4.8 14.5 0.00 0.56 0.00 91 999.2
20260508010505 7 228 4.8 12.9 0.00 0.56 0.00 90 999.1
20260508010006 7 171 6.4 24.1 0.00 0.56 0.00 89 998.9
20260508005505 7 246 4.8 14.5 0.00 0.56 0.00 88 999.0
20260508005006 7 145 6.4 19.3 0.00 0.56 0.00 88 999.0
20260508004006 7 220 4.8 16.1 0.00 0.56 0.00 88 998.7
20260508003506 7 178 4.8 19.3 0.00 0.56 0.00 88 998.8
20260508003006 7 61 4.8 16.1 0.00 0.56 0.00 89 998.8
20260508002505 7 138 4.8 24.1 0.00 0.56 0.00 89 998.7
20260508002006 7 173 4.8 14.5 0.00 0.56 0.00 89 998.6
20260508001505 7 41 4.8 12.9 0.00 0.56 0.00 87 998.6
20260508000505 7 159 6.4 22.5 0.00 0.56 0.00 86 998.7
20260508000006 7 132 4.8 16.1 0.00 0.56 0.00 87 998.5
20260507235505 7 172 8.0 16.1 0.00 0.56 0.00 87 998.6
20260507234005 7 165 9.7 25.7 0.00 0.56 0.00 87 998.5
20260507233506 7 187 9.7 25.7 0.00 0.56 0.00 87 998.6
20260507233006 7 140 8.0 16.1 0.00 0.56 0.00 88 998.7
20260507232505 7 174 8.0 24.1 0.00 0.56 0.00 88 998.6
20260507232005 7 113 8.0 20.9 0.00 0.56 0.00 90 998.6
20260507231506 7 174 9.7 19.3 0.00 0.56 0.00 90 998.5
20260507231005 7 138 8.0 19.3 0.00 0.56 0.00 90 998.6
20260507230006 7 176 9.7 20.9 0.00 0.56 0.00 89 998.6
20260507225506 7 163 6.4 22.5 0.00 0.56 0.56 89 998.7
20260507224506 7 175 8.0 20.9 0.00 0.56 0.56 86 998.6
20260507224005 7 158 9.7 22.5 0.00 0.56 0.56 86 998.4
20260507223505 7 143 6.4 22.5 0.03 0.58 0.56 87 998.5
20260507223006 7 146 8.0 20.9 0.03 0.58 0.56 86 998.6
20260507222506 7 163 4.8 22.5 0.03 0.64 0.56 87 998.5
20260507222005 7 174 8.0 24.1 0.03 0.74 0.56 87 998.5
20260507221505 7 121 9.7 16.1 0.03 0.76 0.56 88 998.5
20260507221005 7 98 6.4 19.3 0.03 0.79 0.56 89 998.5
20260507220005 7 143 8.0 20.9 0.03 0.81 0.56 90 998.4
20260507215505 7 156 4.8 25.7 0.03 0.84 0.56 91 998.5
20260507215005 7 196 4.8 20.9 0.03 0.84 0.56 91 998.5
20260507214505 7 156 4.8 20.9 0.03 0.86 0.56 91 998.5
20260507214005 8 19 8.0 20.9 0.03 0.86 0.56 89 998.7
20260507213505 8 161 12.9 20.9 0.00 0.84 0.53 88 998.5
20260507213005 8 156 9.7 20.9 0.00 0.84 0.53 88 998.4
20260507212504 7 116 4.8 16.1 0.00 0.84 0.53 88 998.3
20260507212005 7 191 4.8 16.1 0.00 0.84 0.53 88 998.4
20260507211505 7 152 8.0 16.1 0.00 0.84 0.53 88 998.4
20260507210505 7 125 8.0 14.5 0.00 0.84 0.53 88 998.4
20260507210005 7 168 8.0 16.1 0.03 0.84 0.53 88 998.4
20260507205505 7 170 8.0 20.9 0.03 0.84 0.53 89 998.5
20260507205005 7 99 8.0 19.3 0.03 0.84 0.53 90 998.4
20260507204505 7 168 4.8 12.9 0.03 0.84 0.53 90 998.2
20260507204004 7 192 4.8 12.9 0.03 0.84 0.53 91 998.4
20260507203005 7 56 3.2 16.1 0.03 0.84 0.53 91 998.2
20260507202505 7 74 4.8 25.7 0.03 0.84 0.53 91 998.2
20260507202005 7 192 6.4 25.7 0.03 0.84 0.53 91 998.3
20260507201504 7 149 8.0 14.5 0.03 0.84 0.53 91 998.3
20260507200505 8 347 4.8 20.9 0.03 0.84 0.53 89 998.2
20260507200005 8 153 6.4 16.1 0.00 0.81 0.51 86 998.4
20260507195505 8 147 8.0 14.5 0.00 0.81 0.51 84 998.3
20260507195005 8 166 4.8 20.9 0.00 0.81 0.51 83 998.1
20260507194505 8 173 6.4 19.3 0.00 0.81 0.51 83 998.0
20260507194005 8 120 4.8 16.1 0.00 0.81 0.51 84 998.1
20260507193505 8 190 4.8 14.5 0.00 0.81 0.51 84 998.1
20260507193005 8 76 8.0 22.5 0.00 0.81 0.51 83 997.9
20260507192505 8 112 4.8 19.3 0.00 0.81 0.51 83 998.0
20260507192004 8 100 6.4 20.9 0.00 0.81 0.51 83 998.1
20260507191504 8 262 8.0 20.9 0.00 0.81 0.51 82 997.9
20260507191005 8 213 6.4 24.1 0.00 0.81 0.51 84 997.7
20260507190504 8 55 4.8 20.9 0.00 0.81 0.51 86 997.7
20260507190005 8 59 4.8 24.1 0.00 0.81 0.51 87 997.9
20260507185504 8 135 8.0 22.5 0.00 0.81 0.51 88 997.6
20260507185004 8 217 8.0 20.9 0.00 0.81 0.51 90 997.7
20260507184004 8 144 8.0 20.9 0.00 0.81 0.51 90 997.8
20260507183504 9 137 8.0 22.5 0.00 0.81 0.51 89 998.0
20260507183004 9 179 6.4 16.1 0.00 0.81 0.51 89 997.9